FW1542 Weather Reports


Display with metric or nautical units.
time (UTC)temp
F
wind
direction
speed
MPH
gust
MPH
rain 1hr
in
rain 24hr
in
rain mn
in
humidity
%
barometer
mb
20260902031558 89 105 5.0 14.0 0.00 0.00 0.00 59 1013.6
20260902031530 89 105 4.0 13.0 0.00 0.00 0.00 59 1015.5
20260902030057 90 113 6.0 13.0 0.00 0.00 0.00 58 1013.6
20260902030029 90 114 6.0 13.0 0.00 0.00 0.00 58 1015.3
20260902024601 89 150 5.0 13.0 0.00 0.00 0.00 57 1013.4
20260902024529 89 101 4.0 13.0 0.00 0.00 0.00 57 1014.9
20260902023055 89 94 3.0 9.0 0.00 0.00 0.00 55 1013.2
20260902023030 89 114 3.0 9.0 0.00 0.00 0.00 56 1014.8
20260902021558 90 97 2.0 4.0 0.00 0.00 0.00 54 1012.7
20260902021543 90 97 2.0 4.0 0.00 0.00 0.00 55 1014.5
20260902020106 90 84 1.0 4.0 0.00 0.00 0.00 53 1012.5
20260902020027 90 84 1.0 3.0 0.00 0.00 0.00 54 1014.2
20260902014550 90 92 2.0 4.0 0.00 0.00 0.00 52 1012.2
20260902014536 90 90 2.0 4.0 0.00 0.00 0.00 52 1014.0
20260902013059 91 96 1.0 3.0 0.00 0.00 0.00 50 1012.1
20260902013026 91 96 1.0 2.0 0.00 0.00 0.00 51 1013.9
20260902011555 92 116 1.0 7.0 0.00 0.00 0.00 49 1012.2
20260902011528 92 116 1.0 7.0 0.00 0.00 0.00 49 1013.8
20260902010051 93 99 1.0 6.0 0.00 0.00 0.00 47 1011.9
20260902010025 93 99 1.0 4.0 0.00 0.00 0.00 48 1013.6
20260902004552 94 101 1.0 5.0 0.00 0.00 0.00 46 1011.9
20260902004528 94 101 1.0 5.0 0.00 0.00 0.00 47 1013.6
20260902003055 94 133 1.0 5.0 0.00 0.00 0.00 45 1012.0
20260902003029 94 155 1.0 5.0 0.00 0.00 0.00 46 1013.6
20260902001556 95 123 1.0 6.0 0.00 0.00 0.00 44 1011.9
20260902001523 95 136 2.0 5.0 0.00 0.00 0.00 45 1013.6
20260902000022 96 96 0.0 3.0 0.00 0.00 0.00 44 1013.5
20260901234550 96 141 0.0 6.0 0.00 0.00 0.00 44 1011.9
20260901234521 96 124 1.0 7.0 0.00 0.00 0.00 44 1013.6
20260901233050 96 0 1.0 8.0 0.00 0.00 0.00 43 1012.0
20260901233019 96 159 1.0 8.0 0.00 0.00 0.00 43 1013.7
20260901231557 96 0 0.0 8.0 0.00 0.00 0.00 43 1012.2
20260901231521 96 200 0.0 4.0 0.00 0.00 0.00 43 1013.7
20260901230117 97 134 2.0 7.0 0.00 0.00 0.00 42 1013.8
20260901230057 97 123 1.0 7.0 0.00 0.00 0.00 42 1012.1
20260901224552 97 0 0.0 5.0 0.00 0.00 0.00 42 1012.2
20260901224521 97 173 0.0 0.0 0.00 0.00 0.00 42 1013.9
20260901223057 97 57 0.0 7.0 0.00 0.00 0.00 42 1012.3
20260901223024 97 360 1.0 5.0 0.00 0.00 0.00 42 1013.9
20260901221600 98 0 0.0 6.0 0.00 0.00 0.00 40 1012.3
20260901221515 98 108 0.0 5.0 0.00 0.00 0.00 41 1013.9
20260901220055 98 0 4.0 9.0 0.00 0.00 0.00 39 1012.5
20260901220027 98 77 3.0 9.0 0.00 0.00 0.00 39 1013.9
20260901214548 98 92 4.0 9.0 0.00 0.00 0.00 41 1012.5
20260901214513 98 90 3.0 9.0 0.00 0.00 0.00 41 1014.0
20260901213109 98 252 2.0 11.0 0.00 0.00 0.00 41 1012.7
20260901213013 98 195 2.0 11.0 0.00 0.00 0.00 41 1014.2
20260901211556 99 0 1.0 5.0 0.00 0.00 0.00 41 1012.9
20260901211509 99 180 1.0 5.0 0.00 0.00 0.00 42 1014.3
20260901210054 98 0 3.0 8.0 0.00 0.00 0.00 42 1013.1
20260901210008 98 111 2.0 7.0 0.00 0.00 0.00 43 1014.6
20260901204559 98 20 2.0 9.0 0.00 0.00 0.00 43 1013.3
20260901204502 98 59 2.0 8.0 0.00 0.00 0.00 42 1014.7
20260901203121 97 217 0.0 8.0 0.00 0.00 0.00 44 1015.1
20260901203109 97 0 1.0 8.0 0.00 0.00 0.00 43 1013.5
20260901201554 96 105 3.0 6.0 0.00 0.00 0.00 48 1015.3
20260901201550 96 69 3.0 9.0 0.00 0.00 0.00 48 1013.8
20260901200052 96 119 0.0 6.0 0.00 0.00 0.00 48 1015.7
20260901200050 96 0 0.0 9.0 0.00 0.00 0.00 47 1014.0
20260901194651 96 103 3.0 9.0 0.00 0.00 0.00 46 1015.8
20260901194552 95 171 1.0 9.0 0.00 0.00 0.00 46 1014.1
20260901193111 95 252 4.0 10.0 0.00 0.00 0.00 48 1014.1
20260901193048 95 252 2.0 10.0 0.00 0.00 0.00 49 1015.9
20260901191553 95 121 3.0 10.0 0.00 0.00 0.00 47 1014.4
20260901191546 95 109 2.0 10.0 0.00 0.00 0.00 47 1016.2
20260901190106 95 147 4.0 10.0 0.00 0.00 0.00 49 1014.6
20260901190048 95 128 3.0 10.0 0.00 0.00 0.00 50 1016.3
20260901184551 95 157 2.0 9.0 0.00 0.00 0.00 48 1014.9
20260901184546 95 153 2.0 8.0 0.00 0.00 0.00 49 1016.7
20260901183056 94 189 1.0 7.0 0.00 0.00 0.00 50 1015.2
20260901183037 94 180 1.0 6.0 0.00 0.00 0.00 50 1016.8
20260901181603 93 137 3.0 12.0 0.00 0.00 0.00 52 1015.4
20260901181535 93 137 2.0 11.0 0.00 0.00 0.00 52 1016.9
20260901180059 94 0 1.0 8.0 0.00 0.00 0.00 51 1015.8
20260901180037 94 46 1.0 8.0 0.00 0.00 0.00 51 1017.3
20260901174604 94 146 2.0 11.0 0.00 0.00 0.00 51 1016.0
20260901174529 94 136 4.0 11.0 0.00 0.00 0.00 51 1017.5
20260901173053 93 86 3.0 9.0 0.00 0.00 0.00 52 1016.3
20260901173026 93 89 2.0 9.0 0.00 0.00 0.00 52 1017.7
20260901171612 92 134 4.0 10.0 0.00 0.00 0.00 54 1016.4
20260901171526 92 121 4.0 9.0 0.00 0.00 0.00 54 1017.9
20260901170104 93 115 4.0 8.0 0.00 0.00 0.00 55 1016.4
20260901170024 93 126 5.0 8.0 0.00 0.00 0.00 55 1018.1
20260901164554 91 162 1.0 9.0 0.00 0.00 0.00 58 1016.5
20260901164520 91 163 0.0 8.0 0.00 0.00 0.00 58 1018.3
20260901163056 91 84 4.0 10.0 0.00 0.00 0.00 59 1016.5
20260901163018 91 49 4.0 10.0 0.00 0.00 0.00 59 1018.3
20260901161554 90 170 5.0 9.0 0.00 0.00 0.00 60 1016.6
20260901161516 90 156 5.0 9.0 0.00 0.00 0.00 59 1018.4
20260901160059 89 0 1.0 11.0 0.00 0.00 0.00 62 1016.6
20260901160017 89 125 1.0 11.0 0.00 0.00 0.00 63 1018.4
20260901154552 89 117 6.0 10.0 0.00 0.00 0.00 64 1016.5
20260901154511 89 144 6.0 10.0 0.00 0.00 0.00 64 1018.3
20260901153103 88 211 3.0 8.0 0.00 0.00 0.00 64 1016.5
20260901153008 88 208 2.0 8.0 0.00 0.00 0.00 64 1018.1
20260901151558 87 106 3.0 8.0 0.00 0.00 0.00 67 1016.5
20260901151506 87 140 3.0 8.0 0.00 0.00 0.00 67 1018.1
20260901150053 86 127 2.0 8.0 0.00 0.00 0.00 69 1016.5
20260901150005 86 127 2.0 8.0 0.00 0.00 0.00 70 1018.2
20260901144551 86 129 1.0 7.0 0.00 0.00 0.00 72 1016.4
20260901144501 86 146 1.0 7.0 0.00 0.00 0.00 72 1018.1
20260901143113 85 140 1.0 6.0 0.00 0.00 0.00 73 1018.1
20260901143054 85 140 0.0 6.0 0.00 0.00 0.00 73 1016.4
20260901141559 85 72 1.0 5.0 0.00 0.00 0.00 76 1016.3
20260901140055 84 172 2.0 4.0 0.00 0.00 0.00 77 1018.3
20260901134618 81 0 0.0 2.0 0.00 0.00 0.00 83 1016.4
20260901133059 80 0 0.0 1.0 0.00 0.00 0.00 88 1016.2
20260901131606 77 0 0.0 1.0 0.00 0.00 0.00 93 1016.2
20260901131557 77 121 0.0 1.0 0.00 0.00 0.00 93 1017.9
20260901130059 77 0 0.0 0.0 0.00 0.00 0.00 92 1016.1
20260901130050 77 121 0.0 0.0 0.00 0.00 0.00 93 1017.7
20260901124603 76 0 0.0 1.0 0.00 0.00 0.00 92 1016.0
20260901124555 76 121 0.0 1.0 0.00 0.00 0.00 92 1017.8
20260901123053 76 0 0.0 1.0 0.00 0.00 0.00 91 1015.9
20260901123048 76 121 0.0 1.0 0.00 0.00 0.00 92 1017.6
20260901121557 77 0 0.0 0.0 0.00 0.00 0.00 91 1015.8
20260901121548 77 121 0.0 0.0 0.00 0.00 0.00 91 1017.5
20260901120059 77 0 0.0 1.0 0.00 0.00 0.00 90 1015.9
20260901120046 77 121 0.0 0.0 0.00 0.00 0.00 91 1017.6
20260901114601 77 0 0.0 2.0 0.00 0.00 0.00 90 1016.0
20260901114557 77 121 0.0 1.0 0.00 0.00 0.00 91 1017.5
20260901113054 77 113 0.0 3.0 0.00 0.00 0.00 90 1015.9
20260901113044 77 113 1.0 3.0 0.00 0.00 0.00 91 1017.5
20260901111553 78 0 0.0 0.0 0.00 0.00 0.00 89 1015.6
20260901111542 78 186 0.0 0.0 0.00 0.00 0.00 90 1017.3
20260901110100 78 0 0.0 2.0 0.00 0.00 0.00 88 1015.6
20260901110041 78 204 0.0 1.0 0.00 0.00 0.00 89 1017.4
20260901104555 79 0 0.0 3.0 0.00 0.00 0.00 87 1015.6
20260901104538 79 165 0.0 2.0 0.00 0.00 0.00 88 1017.3
20260901103103 79 213 0.0 4.0 0.00 0.00 0.00 88 1015.8
20260901103037 79 213 0.0 4.0 0.00 0.00 0.00 88 1017.4
20260901101552 79 165 1.0 5.0 0.00 0.00 0.00 87 1015.8
20260901101535 79 165 1.0 3.0 0.00 0.00 0.00 87 1017.5
20260901100057 79 0 1.0 7.0 0.00 0.00 0.00 87 1015.8
20260901100040 79 168 0.0 7.0 0.00 0.00 0.00 87 1017.5
20260901094552 80 223 1.0 6.0 0.00 0.00 0.00 87 1015.7
20260901094533 80 223 2.0 6.0 0.00 0.00 0.00 87 1017.4
20260901093102 80 203 2.0 6.0 0.00 0.00 0.00 87 1015.8
20260901093033 80 203 1.0 6.0 0.00 0.00 0.00 87 1017.5
20260901091557 80 222 1.0 8.0 0.00 0.00 0.00 87 1016.1
20260901091532 80 222 0.0 7.0 0.00 0.00 0.00 87 1017.6
20260901090052 80 186 1.0 5.0 0.00 0.00 0.00 86 1016.0
20260901090031 80 186 1.0 4.0 0.00 0.00 0.00 87 1017.6
20260901084551 80 157 2.0 10.0 0.00 0.00 0.00 86 1016.0
20260901084530 80 157 1.0 9.0 0.00 0.00 0.00 86 1017.7
20260901083059 80 168 2.0 8.0 0.00 0.00 0.00 85 1015.9
20260901083029 80 182 2.0 8.0 0.00 0.00 0.00 86 1017.5
20260901081555 80 173 3.0 10.0 0.00 0.00 0.00 85 1015.9
20260901081536 80 173 2.0 9.0 0.00 0.00 0.00 85 1017.5
20260901080054 80 0 1.0 8.0 0.00 0.00 0.00 84 1015.8
20260901080030 80 169 0.0 7.0 0.00 0.00 0.00 84 1017.5
20260901074601 80 180 1.0 9.0 0.00 0.00 0.00 83 1015.8
20260901074525 80 167 2.0 8.0 0.00 0.00 0.00 83 1017.5
20260901073101 80 142 2.0 8.0 0.00 0.00 0.00 82 1015.7
20260901073023 80 142 2.0 8.0 0.00 0.00 0.00 82 1017.5
20260901071553 81 161 3.0 8.0 0.00 0.00 0.00 81 1015.9
20260901071524 81 148 3.0 8.0 0.00 0.00 0.00 81 1017.6
20260901070020 81 90 3.0 8.0 0.00 0.00 0.00 80 1017.6
20260901064557 81 134 3.0 11.0 0.00 0.00 0.00 78 1015.7
20260901064521 81 124 3.0 10.0 0.00 0.00 0.00 79 1017.3
20260901063052 82 132 3.0 9.0 0.00 0.00 0.00 78 1015.6
20260901063027 82 202 3.0 9.0 0.00 0.00 0.00 78 1017.3
20260901061604 82 92 5.0 11.0 0.00 0.00 0.00 76 1015.7
20260901061514 82 139 4.0 11.0 0.00 0.00 0.00 77 1017.4
20260901060100 82 133 4.0 12.0 0.00 0.00 0.00 75 1015.4
20260901060011 82 107 4.0 12.0 0.00 0.00 0.00 76 1017.0
20260901054553 83 134 3.0 11.0 0.00 0.00 0.00 74 1015.4
20260901054520 83 140 2.0 10.0 0.00 0.00 0.00 74 1016.8
20260901053057 83 165 5.0 13.0 0.00 0.00 0.00 72 1015.2
20260901053009 83 194 4.0 13.0 0.00 0.00 0.00 73 1016.7
20260901051604 84 153 7.0 14.0 0.00 0.00 0.00 70 1015.3
20260901051504 84 171 6.0 14.0 0.00 0.00 0.00 71 1016.8
20260901050058 84 156 4.0 13.0 0.00 0.00 0.00 69 1015.2
20260901050002 84 146 3.0 13.0 0.00 0.00 0.00 69 1016.6
20260901044600 85 138 6.0 11.0 0.00 0.00 0.00 69 1016.6
20260901044552 85 134 6.0 13.0 0.00 0.00 0.00 68 1015.0
20260901044501 85 154 6.0 12.0 0.00 0.00 0.00 69 1016.6
20260901043102 85 132 6.0 19.0 0.00 0.00 0.00 67 1016.4
20260901043058 85 126 8.0 19.0 0.00 0.00 0.00 67 1014.9
20260901043001 85 173 8.0 19.0 0.00 0.00 0.00 67 1016.5
20260901041659 86 129 3.0 12.0 0.00 0.00 0.00 65 1016.3
20260901041551 86 149 6.0 12.0 0.00 0.00 0.00 65 1014.8
20260901040114 86 137 5.0 14.0 0.00 0.00 0.00 63 1014.6
20260901040112 86 135 6.0 12.0 0.00 0.00 0.00 64 1016.2
20260901034558 87 141 6.0 15.0 0.00 0.00 0.00 63 1016.1
20260901034554 87 167 8.0 15.0 0.00 0.00 0.00 63 1014.5
20260901033057 87 155 5.0 16.0 0.00 0.00 0.00 63 1016.1